This is the latest recevied weather packets stored in our database for station/object KQ4UPF. If no packets are shown the sender has not sent any weather packets the latest 10 day(s).
| Time | Temp. | Humidity | Pressure | Rain* | Wind** | Luminosity | Snow |
|---|---|---|---|---|---|---|---|
| 1777663867 | 18.33° C | 52% | 1015.9 hPa | 0 mm | - | 382 W/m² | - |
| 1777663563 | 18.33° C | 58% | 1016 hPa | 0 mm | - | 351 W/m² | - |
| 1777663261 | 18.33° C | 57% | 1016 hPa | 0 mm | - | 382 W/m² | - |
| 1777662958 | 18.33° C | 57% | 1015.8 hPa | 0 mm | - | 402 W/m² | - |
| 1777662655 | 18.33° C | 54% | 1016.1 hPa | 0 mm | - | 458 W/m² | - |
| 1777662350 | 18.33° C | 57% | 1016.2 hPa | 0 mm | - | 343 W/m² | - |
| 1777662046 | 18.89° C | 59% | 1015.8 hPa | 0 mm | - | 348 W/m² | - |
| 1777661743 | 18.89° C | 56% | 1015.9 hPa | 0 mm | - | 421 W/m² | - |
| 1777661438 | 18.89° C | 51% | 1015.8 hPa | 0 mm | - | 460 W/m² | - |
| 1777661135 | 18.89° C | 57% | 1015.9 hPa | 0 mm | - | 461 W/m² | - |
| 1777660834 | 18.33° C | 57% | 1015.8 hPa | 0 mm | - | 397 W/m² | - |
| 1777660532 | 18.33° C | 59% | 1015.7 hPa | 0 mm | - | 360 W/m² | - |
| 1777660228 | 18.33° C | 55% | 1015.8 hPa | 0 mm | - | 342 W/m² | - |
| 1777659925 | 18.33° C | 55% | 1015.7 hPa | 0 mm | - | 366 W/m² | - |
| 1777659622 | 18.89° C | 50% | 1015.6 hPa | 0 mm | - | 431 W/m² | - |
| 1777659319 | 18.89° C | 49% | 1015.7 hPa | 0 mm | - | 404 W/m² | - |
| 1777659016 | 18.33° C | 56% | 1015.6 hPa | 0 mm | - | 453 W/m² | - |
| 1777658714 | 18.33° C | 53% | 1015.8 hPa | 0 mm | - | 418 W/m² | - |
| 1777658409 | 18.89° C | 52% | 1015.6 hPa | 0 mm | - | 459 W/m² | - |
| 1777658106 | 18.89° C | 55% | 1015.7 hPa | 0 mm | - | 531 W/m² | - |
| 1777657803 | 18.89° C | 50% | 1015.8 hPa | 0 mm | - | 510 W/m² | - |
| 1777657500 | 18.89° C | 57% | 1015.8 hPa | 0 mm | - | 558 W/m² | - |
| 1777657198 | 18.33° C | 52% | 1016 hPa | 0 mm | - | 498 W/m² | - |
| 1777656895 | 18.33° C | 55% | 1016 hPa | 0 mm | - | 454 W/m² | - |
| 1777656591 | 18.33° C | 53% | 1016.2 hPa | 0 mm | - | 397 W/m² | - |
* Rain latest hour (hover to see other rain measurements)
** Current wind speed in m/s (hover to see current wind gust speed)